| time (UTC) | temp C | wind direction | speed KPH | gust KPH | rain 1hr cm | rain 24hr cm | rain mn cm | humidity % | barometer mb |
| 20260506192032 | 21 | 14 | 4.8 | 12.9 | 0.00 | 0.00 | 0.00 | 62 | 1020.1 |
| 20260506191545 | 21 | 13 | 3.2 | 12.9 | 0.00 | 0.00 | 0.00 | 62 | 1020.1 |
| 20260506191033 | 21 | 15 | 3.2 | 12.9 | 0.00 | 0.00 | 0.00 | 64 | 1020.1 |
| 20260506190535 | 21 | 360 | 3.2 | 8.0 | 0.00 | 0.00 | 0.00 | 64 | 1020.2 |
| 20260506190044 | 21 | 16 | 3.2 | 19.3 | 0.00 | 0.00 | 0.00 | 63 | 1020.2 |
| 20260506185531 | 20 | 295 | 3.2 | 19.3 | 0.00 | 0.00 | 0.00 | 64 | 1020.2 |
| 20260506185030 | 21 | 360 | 1.6 | 9.7 | 0.00 | 0.00 | 0.00 | 64 | 1020.1 |
| 20260506184553 | 21 | 5 | 3.2 | 9.7 | 0.00 | 0.00 | 0.00 | 65 | 1020.2 |
| 20260506184032 | 20 | 350 | 3.2 | 11.3 | 0.00 | 0.00 | 0.00 | 66 | 1020.1 |
| 20260506183532 | 20 | 298 | 4.8 | 12.9 | 0.00 | 0.00 | 0.00 | 66 | 1020.2 |
| 20260506183044 | 21 | 5 | 4.8 | 14.5 | 0.00 | 0.00 | 0.00 | 64 | 1020.1 |
| 20260506182531 | 20 | 335 | 4.8 | 14.5 | 0.00 | 0.00 | 0.00 | 65 | 1020.2 |
| 20260506182034 | 21 | 244 | 3.2 | 12.9 | 0.00 | 0.00 | 0.00 | 63 | 1020.1 |
| 20260506181546 | 21 | 277 | 3.2 | 12.9 | 0.00 | 0.00 | 0.00 | 63 | 1020.1 |
| 20260506181031 | 20 | 314 | 0.0 | 9.7 | 0.00 | 0.00 | 0.00 | 64 | 1020.1 |
| 20260506180532 | 20 | 314 | 3.2 | 9.7 | 0.00 | 0.00 | 0.00 | 64 | 1020.1 |
| 20260506180050 | 20 | 310 | 3.2 | 8.0 | 0.00 | 0.00 | 0.00 | 62 | 1020.2 |
| 20260506175536 | 20 | 304 | 1.6 | 8.0 | 0.00 | 0.00 | 0.00 | 63 | 1020.1 |
| 20260506175030 | 20 | 344 | 1.6 | 8.0 | 0.00 | 0.00 | 0.00 | 63 | 1020.1 |
| 20260506174543 | 20 | 254 | 1.6 | 8.0 | 0.00 | 0.00 | 0.00 | 63 | 1020.2 |
| 20260506174032 | 20 | 251 | 1.6 | 6.4 | 0.00 | 0.00 | 0.00 | 63 | 1020.1 |
| 20260506173535 | 20 | 251 | 1.6 | 8.0 | 0.00 | 0.00 | 0.00 | 64 | 1020.1 |
| 20260506173048 | 19 | 249 | 0.0 | 11.3 | 0.00 | 0.00 | 0.00 | 65 | 1020.1 |
| 20260506172531 | 18 | 248 | 4.8 | 11.3 | 0.00 | 0.00 | 0.00 | 65 | 1020.2 |
| 20260506172030 | 19 | 270 | 3.2 | 11.3 | 0.00 | 0.00 | 0.00 | 65 | 1020.2 |
| 20260506171552 | 18 | 269 | 0.0 | 9.7 | 0.00 | 0.00 | 0.00 | 66 | 1020.2 |
| 20260506171035 | 18 | 0 | 0.0 | 6.4 | 0.00 | 0.00 | 0.00 | 68 | 1020.2 |
| 20260506170533 | 18 | 263 | 0.0 | 6.4 | 0.00 | 0.00 | 0.00 | 68 | 1020.3 |
| 20260506170040 | 18 | 263 | 1.6 | 6.4 | 0.00 | 0.00 | 0.00 | 69 | 1020.3 |
| 20260506165534 | 17 | 263 | 1.6 | 6.4 | 0.00 | 0.00 | 0.00 | 69 | 1020.2 |
| 20260506165035 | 17 | 269 | 0.0 | 4.8 | 0.00 | 0.00 | 0.00 | 71 | 1020.2 |
| 20260506164545 | 17 | 0 | 1.6 | 8.0 | 0.00 | 0.00 | 0.00 | 71 | 1020.3 |
| 20260506164034 | 17 | 288 | 1.6 | 8.0 | 0.00 | 0.00 | 0.00 | 70 | 1020.2 |
| 20260506163533 | 16 | 221 | 1.6 | 8.0 | 0.00 | 0.00 | 0.00 | 72 | 1020.3 |
| 20260506163044 | 16 | 221 | 1.6 | 9.7 | 0.00 | 0.00 | 0.00 | 71 | 1020.3 |
| 20260506162532 | 16 | 221 | 1.6 | 9.7 | 0.00 | 0.00 | 0.00 | 72 | 1020.3 |
| 20260506162033 | 16 | 207 | 3.2 | 8.0 | 0.00 | 0.00 | 0.00 | 72 | 1020.3 |
| 20260506161544 | 16 | 205 | 1.6 | 8.0 | 0.00 | 0.00 | 0.00 | 73 | 1020.3 |
| 20260506161031 | 16 | 205 | 1.6 | 8.0 | 0.00 | 0.00 | 0.00 | 73 | 1020.3 |
| 20260506160531 | 16 | 206 | 1.6 | 8.0 | 0.00 | 0.00 | 0.00 | 73 | 1020.3 |
| 20260506160044 | 16 | 207 | 1.6 | 9.7 | 0.00 | 0.00 | 0.00 | 73 | 1020.2 |
| 20260506155531 | 15 | 204 | 3.2 | 9.7 | 0.00 | 0.00 | 0.00 | 74 | 1020.3 |
| 20260506155031 | 15 | 198 | 3.2 | 8.0 | 0.00 | 0.00 | 0.00 | 74 | 1020.3 |
| 20260506154556 | 15 | 192 | 3.2 | 9.7 | 0.00 | 0.00 | 0.00 | 75 | 1020.3 |
| 20260506154032 | 15 | 238 | 3.2 | 9.7 | 0.00 | 0.00 | 0.00 | 75 | 1020.4 |
| 20260506153531 | 15 | 188 | 1.6 | 9.7 | 0.00 | 0.00 | 0.00 | 75 | 1020.4 |
| 20260506153047 | 15 | 227 | 1.6 | 9.7 | 0.00 | 0.00 | 0.00 | 75 | 1020.3 |
| 20260506152532 | 15 | 172 | 1.6 | 6.4 | 0.00 | 0.00 | 0.00 | 76 | 1020.4 |
| 20260506152031 | 15 | 0 | 0.0 | 3.2 | 0.00 | 0.00 | 0.00 | 76 | 1020.4 |
| 20260506151545 | 15 | 0 | 0.0 | 1.6 | 0.00 | 0.00 | 0.00 | 77 | 1020.3 |
| 20260506151032 | 15 | 0 | 0.0 | 1.6 | 0.00 | 0.00 | 0.00 | 76 | 1020.3 |
| 20260506150532 | 15 | 0 | 0.0 | 1.6 | 0.00 | 0.00 | 0.00 | 78 | 1020.4 |
| 20260506150050 | 15 | 0 | 0.0 | 1.6 | 0.00 | 0.00 | 0.00 | 78 | 1020.2 |
| 20260506145533 | 14 | 0 | 0.0 | 1.6 | 0.00 | 0.00 | 0.00 | 79 | 1020.2 |
| 20260506145032 | 14 | 0 | 0.0 | 6.4 | 0.00 | 0.00 | 0.00 | 79 | 1020.1 |
| 20260506144549 | 14 | 0 | 0.0 | 6.4 | 0.00 | 0.00 | 0.00 | 78 | 1020.1 |
| 20260506144033 | 13 | 257 | 1.6 | 6.4 | 0.00 | 0.00 | 0.00 | 78 | 1020.2 |
| 20260506143533 | 13 | 257 | 0.0 | 1.6 | 0.00 | 0.00 | 0.00 | 79 | 1020.2 |
| 20260506143041 | 13 | 0 | 0.0 | 4.8 | 0.00 | 0.00 | 0.00 | 78 | 1020.1 |
| 20260506142531 | 13 | 0 | 0.0 | 4.8 | 0.00 | 0.00 | 0.00 | 79 | 1020.2 |
| 20260506142031 | 13 | 257 | 0.0 | 4.8 | 0.00 | 0.00 | 0.00 | 79 | 1020.1 |
| 20260506141544 | 13 | 0 | 0.0 | 4.8 | 0.00 | 0.00 | 0.00 | 79 | 1020.0 |
| 20260506141034 | 13 | 0 | 0.0 | 4.8 | 0.00 | 0.00 | 0.00 | 79 | 1019.9 |
| 20260506140534 | 13 | 257 | 1.6 | 6.4 | 0.00 | 0.00 | 0.00 | 79 | 1019.9 |
| 20260506140056 | 13 | 257 | 0.0 | 6.4 | 0.00 | 0.00 | 0.00 | 79 | 1019.8 |
| 20260506135531 | 13 | 257 | 0.0 | 3.2 | 0.00 | 0.00 | 0.00 | 80 | 1019.8 |
| 20260506135031 | 13 | 257 | 0.0 | 3.2 | 0.00 | 0.00 | 0.00 | 80 | 1019.7 |
| 20260506134544 | 13 | 0 | 0.0 | 4.8 | 0.00 | 0.00 | 0.00 | 80 | 1019.7 |
| 20260506134031 | 13 | 0 | 0.0 | 4.8 | 0.00 | 0.00 | 0.00 | 80 | 1019.7 |
| 20260506133531 | 13 | 257 | 1.6 | 6.4 | 0.00 | 0.00 | 0.00 | 80 | 1019.7 |
| 20260506133047 | 13 | 257 | 1.6 | 6.4 | 0.00 | 0.00 | 0.00 | 80 | 1019.7 |
| 20260506132534 | 13 | 0 | 1.6 | 6.4 | 0.00 | 0.00 | 0.00 | 80 | 1019.6 |
| 20260506132031 | 13 | 255 | 1.6 | 6.4 | 0.00 | 0.00 | 0.00 | 79 | 1019.7 |
| 20260506131546 | 13 | 255 | 1.6 | 6.4 | 0.00 | 0.00 | 0.00 | 79 | 1019.7 |
| 20260506131031 | 13 | 254 | 1.6 | 6.4 | 0.00 | 0.00 | 0.00 | 80 | 1019.6 |
| 20260506130531 | 13 | 0 | 0.0 | 6.4 | 0.00 | 0.00 | 0.00 | 79 | 1019.6 |
| 20260506130045 | 13 | 254 | 1.6 | 8.0 | 0.00 | 0.00 | 0.00 | 80 | 1019.6 |
| 20260506125531 | 13 | 254 | 0.0 | 8.0 | 0.00 | 0.00 | 0.00 | 79 | 1019.6 |
| 20260506125031 | 13 | 254 | 1.6 | 4.8 | 0.00 | 0.00 | 0.00 | 79 | 1019.5 |
| 20260506124545 | 13 | 256 | 0.0 | 4.8 | 0.00 | 0.00 | 0.00 | 79 | 1019.4 |
| 20260506124031 | 13 | 256 | 0.0 | 4.8 | 0.00 | 0.00 | 0.00 | 79 | 1019.4 |
| 20260506123532 | 13 | 256 | 0.0 | 4.8 | 0.00 | 0.00 | 0.00 | 79 | 1019.4 |
| 20260506123044 | 13 | 256 | 1.6 | 8.0 | 0.00 | 0.00 | 0.00 | 79 | 1019.4 |
| 20260506122532 | 13 | 0 | 1.6 | 8.0 | 0.00 | 0.00 | 0.00 | 79 | 1019.4 |
| 20260506122031 | 13 | 245 | 1.6 | 4.8 | 0.00 | 0.00 | 0.00 | 79 | 1019.4 |
| 20260506121541 | 13 | 245 | 1.6 | 4.8 | 0.00 | 0.00 | 0.00 | 79 | 1019.5 |
| 20260506121033 | 13 | 0 | 0.0 | 6.4 | 0.00 | 0.00 | 0.00 | 79 | 1019.4 |
| 20260506120535 | 13 | 245 | 1.6 | 6.4 | 0.00 | 0.00 | 0.00 | 79 | 1019.5 |
| 20260506120054 | 13 | 245 | 0.0 | 6.4 | 0.00 | 0.00 | 0.00 | 79 | 1019.4 |
| 20260506115532 | 13 | 0 | 0.0 | 6.4 | 0.00 | 0.00 | 0.00 | 79 | 1019.4 |
| 20260506115031 | 13 | 242 | 1.6 | 3.2 | 0.00 | 0.00 | 0.00 | 80 | 1019.3 |
| 20260506114553 | 13 | 0 | 0.0 | 8.0 | 0.00 | 0.00 | 0.00 | 80 | 1019.3 |
| 20260506114031 | 13 | 0 | 1.6 | 11.3 | 0.00 | 0.00 | 0.00 | 80 | 1019.2 |
| 20260506113532 | 13 | 241 | 1.6 | 12.9 | 0.00 | 0.00 | 0.00 | 80 | 1019.2 |
| 20260506113049 | 13 | 194 | 4.8 | 12.9 | 0.00 | 0.00 | 0.00 | 79 | 1018.9 |
| 20260506112535 | 13 | 265 | 1.6 | 9.7 | 0.00 | 0.00 | 0.00 | 80 | 1019.0 |
| 20260506112031 | 13 | 265 | 1.6 | 9.7 | 0.00 | 0.00 | 0.00 | 80 | 1018.9 |
| 20260506111542 | 13 | 248 | 3.2 | 6.4 | 0.00 | 0.00 | 0.00 | 79 | 1018.9 |
| 20260506111033 | 13 | 246 | 0.0 | 8.0 | 0.00 | 0.00 | 0.00 | 79 | 1018.8 |
| 20260506110533 | 13 | 246 | 3.2 | 8.0 | 0.00 | 0.00 | 0.00 | 79 | 1018.8 |
| 20260506110040 | 13 | 245 | 3.2 | 6.4 | 0.00 | 0.00 | 0.00 | 79 | 1018.8 |
| 20260506105530 | 13 | 244 | 0.0 | 12.9 | 0.00 | 0.00 | 0.00 | 79 | 1018.8 |
| 20260506105031 | 13 | 244 | 1.6 | 12.9 | 0.00 | 0.00 | 0.00 | 79 | 1018.8 |
| 20260506104554 | 13 | 245 | 0.0 | 8.0 | 0.00 | 0.00 | 0.00 | 79 | 1018.8 |
| 20260506104032 | 13 | 245 | 0.0 | 8.0 | 0.00 | 0.00 | 0.00 | 79 | 1018.7 |
| 20260506103531 | 13 | 245 | 3.2 | 8.0 | 0.00 | 0.00 | 0.00 | 79 | 1018.8 |
| 20260506103043 | 13 | 0 | 1.6 | 8.0 | 0.00 | 0.00 | 0.00 | 79 | 1018.8 |
| 20260506102534 | 13 | 244 | 3.2 | 8.0 | 0.00 | 0.00 | 0.00 | 79 | 1018.8 |
| 20260506102031 | 13 | 246 | 1.6 | 8.0 | 0.00 | 0.00 | 0.00 | 79 | 1018.7 |
| 20260506101549 | 13 | 246 | 1.6 | 11.3 | 0.00 | 0.00 | 0.00 | 79 | 1018.7 |
| 20260506101032 | 13 | 246 | 1.6 | 11.3 | 0.00 | 0.00 | 0.00 | 79 | 1018.7 |
| 20260506100531 | 13 | 246 | 1.6 | 8.0 | 0.00 | 0.00 | 0.00 | 79 | 1018.6 |
| 20260506100043 | 13 | 246 | 3.2 | 8.0 | 0.00 | 0.00 | 0.00 | 79 | 1018.7 |
| 20260506095535 | 13 | 246 | 1.6 | 8.0 | 0.00 | 0.03 | 0.00 | 79 | 1018.7 |
| 20260506095033 | 13 | 246 | 3.2 | 11.3 | 0.00 | 0.03 | 0.00 | 79 | 1018.7 |
| 20260506094543 | 13 | 246 | 1.6 | 11.3 | 0.00 | 0.03 | 0.00 | 79 | 1018.7 |
| 20260506094031 | 13 | 243 | 3.2 | 8.0 | 0.00 | 0.03 | 0.00 | 79 | 1018.6 |
| 20260506093531 | 13 | 247 | 3.2 | 11.3 | 0.00 | 0.03 | 0.00 | 79 | 1018.6 |
| 20260506093045 | 13 | 247 | 3.2 | 11.3 | 0.00 | 0.03 | 0.00 | 79 | 1018.5 |
| 20260506092532 | 13 | 247 | 4.8 | 11.3 | 0.00 | 0.03 | 0.00 | 79 | 1018.6 |
| 20260506092031 | 13 | 243 | 3.2 | 9.7 | 0.00 | 0.03 | 0.00 | 79 | 1018.6 |
| 20260506091544 | 13 | 244 | 1.6 | 11.3 | 0.00 | 0.03 | 0.00 | 80 | 1018.6 |
| 20260506091031 | 13 | 242 | 3.2 | 12.9 | 0.00 | 0.03 | 0.00 | 79 | 1018.6 |
| 20260506090533 | 13 | 260 | 1.6 | 12.9 | 0.00 | 0.03 | 0.00 | 80 | 1018.6 |
| 20260506090043 | 13 | 278 | 3.2 | 11.3 | 0.00 | 0.03 | 0.00 | 79 | 1018.7 |
| 20260506085531 | 13 | 281 | 3.2 | 11.3 | 0.00 | 0.08 | 0.00 | 79 | 1018.7 |
| 20260506085031 | 13 | 282 | 1.6 | 9.7 | 0.00 | 0.08 | 0.00 | 80 | 1018.7 |
| 20260506084546 | 13 | 282 | 3.2 | 11.3 | 0.00 | 0.08 | 0.00 | 80 | 1018.7 |
| 20260506084031 | 13 | 282 | 4.8 | 11.3 | 0.00 | 0.08 | 0.00 | 80 | 1018.6 |
| 20260506083532 | 13 | 265 | 3.2 | 9.7 | 0.00 | 0.08 | 0.00 | 80 | 1018.6 |
| 20260506083050 | 13 | 0 | 1.6 | 6.4 | 0.00 | 0.08 | 0.00 | 80 | 1018.7 |
| 20260506082531 | 13 | 264 | 0.0 | 14.5 | 0.00 | 0.08 | 0.00 | 80 | 1018.6 |
| 20260506082032 | 13 | 264 | 1.6 | 14.5 | 0.00 | 0.08 | 0.00 | 80 | 1018.6 |
| 20260506081545 | 13 | 265 | 1.6 | 12.9 | 0.00 | 0.08 | 0.00 | 80 | 1018.6 |
| 20260506081035 | 13 | 0 | 1.6 | 12.9 | 0.00 | 0.08 | 0.00 | 80 | 1018.6 |
| 20260506080532 | 13 | 310 | 3.2 | 6.4 | 0.00 | 0.08 | 0.00 | 80 | 1018.6 |
| 20260506073529 | 12 | 0 | 1.6 | 4.8 | 0.00 | 0.23 | 0.00 | 81 | 1018.3 |
| 20260506073046 | 12 | 0 | 0.0 | 4.8 | 0.00 | 0.23 | 0.00 | 81 | 1018.3 |
| 20260506072529 | 12 | 242 | 0.0 | 4.8 | 0.00 | 0.23 | 0.00 | 81 | 1018.2 |
| 20260506072034 | 12 | 242 | 0.0 | 4.8 | 0.00 | 0.23 | 0.00 | 81 | 1018.3 |
| 20260506071548 | 12 | 0 | 0.0 | 4.8 | 0.00 | 0.23 | 0.00 | 81 | 1018.2 |
| 20260506071033 | 12 | 242 | 1.6 | 8.0 | 0.00 | 0.23 | 0.00 | 81 | 1018.1 |
| 20260506070531 | 12 | 0 | 0.0 | 12.9 | 0.00 | 0.23 | 0.00 | 80 | 1018.2 |
| 20260506062033 | 13 | 239 | 4.8 | 14.5 | 0.00 | 0.30 | 0.23 | 80 | 1017.9 |
| 20260506061542 | 13 | 250 | 6.4 | 14.5 | 0.00 | 0.30 | 0.23 | 79 | 1017.8 |
| 20260506061036 | 13 | 238 | 4.8 | 11.3 | 0.00 | 0.30 | 0.23 | 79 | 1017.7 |
| 20260506060532 | 13 | 242 | 3.2 | 12.9 | 0.00 | 0.30 | 0.23 | 79 | 1017.8 |
| 20260506051033 | 13 | 215 | 6.4 | 12.9 | 0.00 | 0.38 | 0.23 | 77 | 1017.2 |
| 20260506050532 | 13 | 248 | 4.8 | 14.5 | 0.00 | 0.38 | 0.23 | 77 | 1017.1 |
| 20260506045030 | 13 | 229 | 1.6 | 14.5 | 0.00 | 0.53 | 0.23 | 76 | 1017.1 |
| 20260506044540 | 13 | 252 | 1.6 | 11.3 | 0.00 | 0.53 | 0.23 | 76 | 1017.1 |
| 20260506044029 | 13 | 182 | 3.2 | 11.3 | 0.00 | 0.53 | 0.23 | 76 | 1017.0 |
| 20260506043532 | 14 | 244 | 3.2 | 19.3 | 0.00 | 0.53 | 0.23 | 77 | 1016.9 |
| 20260506043047 | 14 | 180 | 4.8 | 19.3 | 0.00 | 0.53 | 0.23 | 76 | 1016.8 |
| 20260506042531 | 14 | 219 | 4.8 | 16.1 | 0.00 | 0.53 | 0.23 | 76 | 1016.8 |
| 20260506042032 | 14 | 217 | 1.6 | 14.5 | 0.00 | 0.53 | 0.23 | 76 | 1016.9 |
| 20260506041542 | 14 | 235 | 3.2 | 14.5 | 0.00 | 0.53 | 0.23 | 76 | 1016.6 |
| 20260506041028 | 14 | 204 | 1.6 | 11.3 | 0.00 | 0.53 | 0.23 | 76 | 1016.6 |
| 20260506040530 | 14 | 259 | 3.2 | 14.5 | 0.00 | 0.53 | 0.23 | 76 | 1016.6 |
| 20260506040046 | 15 | 175 | 1.6 | 14.5 | 0.00 | 0.53 | 0.23 | 75 | 1016.5 |
| 20260506035532 | 15 | 211 | 3.2 | 12.9 | 0.00 | 0.53 | 0.23 | 75 | 1016.5 |
| 20260506035031 | 15 | 201 | 3.2 | 16.1 | 0.00 | 0.53 | 0.23 | 75 | 1016.4 |
| 20260506034549 | 15 | 228 | 4.8 | 16.1 | 0.00 | 0.53 | 0.23 | 74 | 1016.4 |
| 20260506034031 | 15 | 192 | 3.2 | 14.5 | 0.00 | 0.53 | 0.23 | 74 | 1016.3 |
| 20260506033531 | 15 | 254 | 3.2 | 14.5 | 0.00 | 0.53 | 0.23 | 74 | 1016.3 |
| 20260506033042 | 15 | 221 | 4.8 | 14.5 | 0.00 | 0.53 | 0.23 | 74 | 1016.1 |
| 20260506032531 | 15 | 223 | 4.8 | 14.5 | 0.00 | 0.53 | 0.23 | 73 | 1016.0 |
| 20260506032031 | 15 | 227 | 4.8 | 14.5 | 0.00 | 0.53 | 0.23 | 73 | 1015.9 |
| 20260506031548 | 15 | 208 | 3.2 | 12.9 | 0.00 | 0.53 | 0.23 | 73 | 1015.8 |
| 20260506031030 | 15 | 202 | 4.8 | 12.9 | 0.00 | 0.53 | 0.23 | 73 | 1015.8 |
| 20260506030528 | 15 | 214 | 4.8 | 17.7 | 0.00 | 0.53 | 0.23 | 73 | 1015.7 |
| 20260506030044 | 15 | 254 | 4.8 | 17.7 | 0.00 | 0.53 | 0.23 | 73 | 1015.7 |
| 20260506025530 | 15 | 184 | 3.2 | 12.9 | 0.00 | 0.53 | 0.23 | 73 | 1015.7 |
| 20260506025033 | 15 | 177 | 1.6 | 12.9 | 0.00 | 0.53 | 0.23 | 73 | 1015.7 |
| 20260506024548 | 15 | 160 | 1.6 | 14.5 | 0.00 | 0.53 | 0.23 | 73 | 1015.5 |
| 20260506024029 | 15 | 218 | 6.4 | 14.5 | 0.00 | 0.53 | 0.23 | 73 | 1015.6 |
| 20260506023531 | 15 | 212 | 6.4 | 14.5 | 0.00 | 0.53 | 0.23 | 73 | 1015.5 |
| 20260506023054 | 16 | 201 | 1.6 | 11.3 | 0.00 | 0.53 | 0.23 | 73 | 1015.6 |
| 20260506022532 | 16 | 242 | 3.2 | 14.5 | 0.00 | 0.53 | 0.23 | 73 | 1015.4 |
| 20260506022031 | 16 | 240 | 4.8 | 14.5 | 0.00 | 0.53 | 0.23 | 72 | 1015.4 |
| 20260506021547 | 16 | 244 | 6.4 | 14.5 | 0.00 | 0.53 | 0.23 | 72 | 1015.4 |
| 20260506021032 | 16 | 194 | 4.8 | 12.9 | 0.00 | 0.53 | 0.23 | 72 | 1015.3 |
| 20260506020531 | 16 | 254 | 3.2 | 11.3 | 0.00 | 0.53 | 0.23 | 72 | 1015.3 |
| 20260506020047 | 16 | 214 | 3.2 | 11.3 | 0.00 | 0.53 | 0.23 | 72 | 1015.3 |
| 20260506015532 | 16 | 199 | 4.8 | 11.3 | 0.00 | 0.53 | 0.23 | 72 | 1015.3 |
| 20260506015034 | 16 | 211 | 4.8 | 11.3 | 0.00 | 0.53 | 0.23 | 71 | 1015.3 |
| 20260506014545 | 16 | 208 | 3.2 | 11.3 | 0.00 | 0.53 | 0.23 | 72 | 1015.3 |
| 20260506014030 | 17 | 224 | 3.2 | 12.9 | 0.00 | 0.53 | 0.23 | 71 | 1015.2 |
| 20260506013529 | 17 | 161 | 4.8 | 12.9 | 0.00 | 0.53 | 0.23 | 71 | 1015.2 |
| 20260506013043 | 17 | 205 | 3.2 | 12.9 | 0.00 | 0.53 | 0.23 | 71 | 1015.1 |
| 20260506012531 | 17 | 211 | 4.8 | 14.5 | 0.00 | 0.53 | 0.23 | 70 | 1015.1 |
| 20260506012030 | 17 | 263 | 3.2 | 14.5 | 0.00 | 0.53 | 0.23 | 71 | 1015.1 |
| 20260506011538 | 17 | 224 | 4.8 | 9.7 | 0.00 | 0.53 | 0.23 | 71 | 1015.0 |
| 20260506011030 | 17 | 205 | 3.2 | 11.3 | 0.00 | 0.53 | 0.23 | 70 | 1015.1 |
| 20260506010529 | 17 | 284 | 4.8 | 12.9 | 0.00 | 0.53 | 0.23 | 70 | 1015.1 |
| 20260506010048 | 17 | 256 | 4.8 | 12.9 | 0.00 | 0.53 | 0.23 | 70 | 1015.0 |
| 20260506005528 | 18 | 228 | 3.2 | 16.1 | 0.00 | 0.53 | 0.23 | 69 | 1015.0 |
| 20260506005028 | 18 | 177 | 4.8 | 16.1 | 0.00 | 0.53 | 0.23 | 67 | 1015.0 |
| 20260506004548 | 18 | 164 | 4.8 | 12.9 | 0.00 | 0.53 | 0.23 | 68 | 1014.9 |
| 20260506004028 | 18 | 201 | 3.2 | 12.9 | 0.00 | 0.53 | 0.23 | 68 | 1014.9 |
| 20260506003529 | 18 | 195 | 6.4 | 12.9 | 0.00 | 0.53 | 0.23 | 68 | 1015.0 |
| 20260506003045 | 17 | 205 | 3.2 | 17.7 | 0.00 | 0.53 | 0.23 | 69 | 1014.9 |
| 20260506002528 | 17 | 240 | 4.8 | 17.7 | 0.00 | 0.53 | 0.23 | 68 | 1014.9 |
| 20260506002030 | 17 | 199 | 4.8 | 12.9 | 0.00 | 0.53 | 0.23 | 68 | 1014.9 |
| 20260506001546 | 18 | 184 | 4.8 | 14.5 | 0.00 | 0.53 | 0.23 | 68 | 1014.9 |
| 20260506001029 | 18 | 186 | 6.4 | 14.5 | 0.00 | 0.53 | 0.23 | 68 | 1014.9 |
| 20260506000531 | 18 | 261 | 3.2 | 14.5 | 0.00 | 0.53 | 0.23 | 68 | 1014.7 |
| 20260506000042 | 18 | 202 | 4.8 | 14.5 | 0.00 | 0.53 | 0.23 | 67 | 1014.8 |
| 20260505235528 | 18 | 265 | 6.4 | 12.9 | 0.00 | 0.53 | 0.23 | 65 | 1014.8 |
| 20260505235029 | 19 | 215 | 3.2 | 14.5 | 0.00 | 0.53 | 0.23 | 66 | 1014.8 |
| 20260505234601 | 18 | 207 | 6.4 | 14.5 | 0.00 | 0.53 | 0.23 | 67 | 1014.9 |
| 20260505234035 | 18 | 180 | 4.8 | 12.9 | 0.00 | 0.53 | 0.23 | 67 | 1014.8 |
| 20260505233531 | 18 | 223 | 1.6 | 14.5 | 0.00 | 0.53 | 0.23 | 68 | 1014.9 |
| 20260505233044 | 18 | 186 | 1.6 | 14.5 | 0.00 | 0.53 | 0.23 | 70 | 1014.9 |
| 20260505232534 | 17 | 198 | 4.8 | 14.5 | 0.00 | 0.53 | 0.23 | 71 | 1014.9 |
| 20260505232036 | 17 | 211 | 4.8 | 14.5 | 0.00 | 0.53 | 0.23 | 70 | 1015.0 |
| 20260505231545 | 17 | 204 | 4.8 | 12.9 | 0.00 | 0.53 | 0.23 | 70 | 1015.0 |
| 20260505231033 | 17 | 186 | 4.8 | 9.7 | 0.00 | 0.53 | 0.23 | 70 | 1015.1 |
| 20260505230530 | 17 | 256 | 3.2 | 9.7 | 0.00 | 0.53 | 0.23 | 70 | 1015.0 |
| 20260505230043 | 17 | 180 | 1.6 | 11.3 | 0.00 | 0.53 | 0.23 | 72 | 1015.1 |
| 20260505225534 | 17 | 199 | 3.2 | 11.3 | 0.00 | 0.53 | 0.23 | 71 | 1015.1 |
| 20260505225035 | 17 | 192 | 3.2 | 12.9 | 0.00 | 0.53 | 0.23 | 70 | 1015.1 |
| 20260505224542 | 17 | 210 | 3.2 | 12.9 | 0.00 | 0.53 | 0.23 | 70 | 1015.1 |
| 20260505224035 | 17 | 219 | 3.2 | 12.9 | 0.00 | 0.53 | 0.23 | 70 | 1015.2 |
| 20260505223530 | 17 | 204 | 1.6 | 11.3 | 0.00 | 0.53 | 0.23 | 70 | 1015.0 |
| 20260505223047 | 17 | 242 | 3.2 | 11.3 | 0.00 | 0.53 | 0.23 | 70 | 1015.1 |
| 20260505222535 | 17 | 0 | 1.6 | 11.3 | 0.00 | 0.53 | 0.23 | 70 | 1015.1 |
| 20260505222032 | 17 | 0 | 0.0 | 11.3 | 0.00 | 0.53 | 0.23 | 71 | 1015.1 |
| 20260505221545 | 17 | 191 | 3.2 | 12.9 | 0.00 | 0.53 | 0.23 | 70 | 1015.2 |
| 20260505221032 | 17 | 196 | 3.2 | 12.9 | 0.00 | 0.53 | 0.23 | 70 | 1015.3 |
| 20260505220530 | 18 | 222 | 1.6 | 11.3 | 0.00 | 0.53 | 0.23 | 69 | 1015.3 |
| 20260505220045 | 18 | 202 | 4.8 | 11.3 | 0.00 | 0.53 | 0.23 | 69 | 1015.2 |
| 20260505215534 | 18 | 214 | 3.2 | 11.3 | 0.00 | 0.53 | 0.23 | 69 | 1015.3 |
| 20260505215033 | 18 | 198 | 3.2 | 11.3 | 0.00 | 0.53 | 0.23 | 69 | 1015.2 |
| 20260505214601 | 18 | 207 | 1.6 | 11.3 | 0.00 | 0.53 | 0.23 | 71 | 1015.3 |
| 20260505214030 | 17 | 204 | 4.8 | 11.3 | 0.00 | 0.53 | 0.23 | 69 | 1015.3 |
| 20260505213537 | 17 | 248 | 3.2 | 11.3 | 0.00 | 0.53 | 0.23 | 70 | 1015.4 |
| 20260505213057 | 17 | 240 | 3.2 | 8.0 | 0.00 | 0.53 | 0.23 | 71 | 1015.4 |
| 20260505212532 | 17 | 0 | 1.6 | 8.0 | 0.00 | 0.53 | 0.23 | 72 | 1015.5 |
| 20260505212031 | 17 | 235 | 3.2 | 8.0 | 0.00 | 0.53 | 0.23 | 72 | 1015.5 |
| 20260505211546 | 17 | 238 | 3.2 | 8.0 | 0.00 | 0.53 | 0.23 | 72 | 1015.4 |
| 20260505211033 | 17 | 0 | 1.6 | 8.0 | 0.00 | 0.53 | 0.23 | 72 | 1015.4 |
| 20260505210533 | 17 | 226 | 1.6 | 8.0 | 0.00 | 0.53 | 0.23 | 71 | 1015.5 |
| 20260505210050 | 17 | 0 | 1.6 | 12.9 | 0.00 | 0.53 | 0.23 | 72 | 1015.5 |
| 20260505205531 | 17 | 232 | 1.6 | 12.9 | 0.00 | 0.53 | 0.23 | 72 | 1015.5 |
| 20260505205030 | 17 | 283 | 3.2 | 12.9 | 0.00 | 0.53 | 0.23 | 71 | 1015.5 |
| 20260505204554 | 16 | 194 | 1.6 | 11.3 | 0.00 | 0.53 | 0.23 | 72 | 1015.5 |
| 20260505204031 | 16 | 246 | 4.8 | 11.3 | 0.00 | 0.53 | 0.23 | 73 | 1015.5 |
| 20260505203533 | 16 | 220 | 4.8 | 11.3 | 0.00 | 0.53 | 0.23 | 71 | 1015.6 |
| 20260505203049 | 16 | 191 | 3.2 | 11.3 | 0.00 | 0.53 | 0.23 | 73 | 1015.6 |
| 20260505202530 | 16 | 192 | 4.8 | 11.3 | 0.00 | 0.53 | 0.23 | 73 | 1015.6 |
| 20260505202033 | 16 | 256 | 3.2 | 11.3 | 0.00 | 0.53 | 0.23 | 74 | 1015.6 |
| 20260505201550 | 16 | 245 | 3.2 | 11.3 | 0.00 | 0.53 | 0.23 | 74 | 1015.6 |
| 20260505201033 | 16 | 240 | 4.8 | 11.3 | 0.00 | 0.53 | 0.23 | 75 | 1015.7 |
| 20260505200531 | 16 | 209 | 1.6 | 9.7 | 0.00 | 0.53 | 0.23 | 75 | 1015.6 |
| 20260505200058 | 16 | 205 | 3.2 | 9.7 | 0.00 | 0.53 | 0.23 | 75 | 1015.7 |
| 20260505195530 | 16 | 221 | 3.2 | 11.3 | 0.00 | 0.53 | 0.23 | 74 | 1015.8 |
| 20260505195037 | 16 | 215 | 3.2 | 11.3 | 0.00 | 0.53 | 0.23 | 74 | 1015.7 |
| 20260505194547 | 16 | 237 | 3.2 | 11.3 | 0.00 | 0.53 | 0.23 | 74 | 1015.8 |
| 20260505194031 | 16 | 211 | 3.2 | 11.3 | 0.00 | 0.53 | 0.23 | 73 | 1015.8 |
| 20260505193534 | 16 | 279 | 3.2 | 9.7 | 0.00 | 0.53 | 0.23 | 74 | 1015.7 |
| 20260505193051 | 16 | 193 | 3.2 | 12.9 | 0.00 | 0.53 | 0.23 | 73 | 1015.7 |
| 20260505192533 | 16 | 205 | 6.4 | 12.9 | 0.00 | 0.53 | 0.23 | 72 | 1015.7 |